CW0570 Weather Reports


time (UTC)temp
F
wind
direction
speed
knots
gust
knots
rain 1hr
in
rain 24hr
in
rain mn
in
humidity
%
barometer
mb
20260506124543 52 360 0.0 0.0 0.00 0.00 0.00 95 1021.7
20260506123044 52 360 0.0 1.7 0.00 0.00 0.00 95 1021.6
20260506121543 52 360 0.0 0.0 0.00 0.00 0.00 94 1021.5
20260506120105 52 360 0.0 0.9 0.00 0.00 0.00 94 1021.3
20260506114539 52 360 0.0 0.0 0.00 0.00 0.00 94 1021.3
20260506113035 52 360 0.0 0.0 0.00 0.00 0.00 94 1021.2
20260506111533 52 360 0.0 0.0 0.00 0.00 0.00 94 1021.0
20260506110032 52 360 0.0 0.9 0.00 0.00 0.00 93 1020.9
20260506104532 52 360 0.0 0.0 0.00 0.00 0.00 93 1020.9
20260506103031 52 360 0.0 0.0 0.00 0.00 0.00 93 1020.7
20260506101527 52 327 0.0 0.9 0.00 0.00 0.00 92 1020.5
20260506100025 52 327 0.0 1.7 0.00 0.00 0.00 92 1020.4
20260506094532 52 325 0.0 1.7 0.00 0.00 0.00 92 1020.3
20260506093039 53 325 0.0 2.6 0.00 0.00 0.00 91 1020.3
20260506091524 53 332 0.0 1.7 0.00 0.00 0.00 91 1020.2
20260506090019 53 19 0.0 1.7 0.00 0.00 0.00 90 1020.1
20260506084519 53 35 0.0 1.7 0.00 0.00 0.00 90 1020.1
20260506083017 53 35 0.0 0.0 0.00 0.00 0.00 90 1019.9
20260506081516 53 35 0.0 1.7 0.00 0.00 0.00 89 1019.9
20260506073010 53 351 0.0 0.0 0.00 0.00 0.00 89 1019.5
20260506071510 53 351 0.0 1.7 0.00 0.00 0.00 89 1019.3
20260506061505 54 349 0.0 2.6 0.00 0.00 0.00 88 1019.2
20260506044603 54 311 0.0 2.6 0.00 0.00 0.00 87 1018.8
20260506043057 55 346 0.0 1.7 0.00 0.00 0.00 87 1018.7
20260506041557 55 332 0.0 1.7 0.00 0.00 0.00 86 1018.5
20260506040058 55 332 0.0 0.0 0.00 0.00 0.00 86 1018.2
20260506034553 55 332 0.0 1.7 0.00 0.00 0.00 85 1018.2
20260506033050 56 332 0.0 0.0 0.00 0.00 0.00 85 1017.9
20260506031558 56 332 0.0 0.0 0.00 0.00 0.00 85 1017.8
20260506030105 56 332 0.0 2.6 0.00 0.00 0.00 84 1017.7
20260506024546 57 133 0.0 1.7 0.00 0.00 0.00 84 1017.5
20260506023043 57 133 0.0 1.7 0.00 0.00 0.00 84 1017.4
20260506021543 57 152 0.9 1.7 0.00 0.00 0.00 83 1017.2
20260506020044 58 259 0.9 3.5 0.00 0.00 0.00 81 1017.1
20260506014543 58 335 0.9 4.3 0.00 0.00 0.00 81 1017.0
20260506013046 59 15 1.7 5.2 0.00 0.00 0.00 80 1017.0
20260506011541 62 13 1.7 7.0 0.00 0.00 0.00 75 1016.9
20260506010041 63 257 1.7 4.3 0.00 0.00 0.00 74 1016.8
20260506004610 62 35 0.9 7.8 0.00 0.00 0.00 76 1016.7
20260506003039 63 244 1.7 7.0 0.00 0.00 0.00 74 1016.7
20260506001539 63 342 0.9 6.1 0.00 0.00 0.00 74 1016.7
20260506000043 63 267 3.5 7.0 0.00 0.00 0.00 73 1016.7
20260505234605 63 306 2.6 8.7 0.00 0.00 0.00 75 1016.7
20260505233036 64 246 2.6 7.8 0.00 0.00 0.00 72 1016.8
20260505231537 65 264 2.6 6.1 0.00 0.00 0.00 73 1016.8
20260505230035 65 128 1.7 7.8 0.00 0.00 0.00 74 1016.7
20260505224534 64 250 2.6 7.8 0.00 0.00 0.00 72 1016.7
20260505223037 64 182 0.9 8.7 0.00 0.00 0.00 75 1016.7
20260505221532 65 227 0.9 7.8 0.00 0.00 0.00 72 1016.5
20260505220031 66 296 2.6 7.8 0.00 0.00 0.00 71 1016.5
20260505214538 66 151 2.6 7.0 0.00 0.00 0.00 74 1016.3
20260505213030 66 227 1.7 7.0 0.00 0.00 0.00 74 1016.1
20260505211530 66 246 1.7 7.0 0.00 0.00 0.00 72 1016.1
20260505210030 67 128 1.7 7.0 0.00 0.00 0.00 70 1016.2
20260505204529 67 252 2.6 6.1 0.00 0.00 0.00 72 1016.1
20260505203026 66 280 0.9 7.8 0.00 0.00 0.00 72 1016.1
20260505201528 66 253 0.9 3.5 0.00 0.00 0.00 71 1016.2
20260505200025 64 229 0.9 3.5 0.00 0.00 0.00 72 1016.3
20260505194519 64 355 0.0 2.6 0.00 0.00 0.00 74 1016.5
20260505193016 63 333 0.9 3.5 0.00 0.00 0.00 72 1016.6
20260505191517 63 259 0.9 3.5 0.00 0.00 0.00 76 1016.9
20260505190013 62 317 2.6 7.0 0.00 0.00 0.00 78 1017.0
20260505184513 59 338 1.7 4.3 0.00 0.00 0.00 81 1017.1
20260505183010 58 317 0.9 2.6 0.00 0.00 0.00 82 1017.3
20260505181502 57 355 0.0 2.6 0.00 0.00 0.00 81 1017.3
20260505174558 56 267 0.0 1.7 0.00 0.00 0.00 83 1017.2
20260505173055 56 267 0.0 1.7 0.00 0.00 0.00 84 1017.1
20260505171553 55 271 0.0 1.7 0.00 0.00 0.00 86 1017.1
20260505170051 55 258 0.9 2.6 0.00 0.00 0.00 86 1017.1
20260505164551 54 36 0.0 0.9 0.00 0.00 0.00 87 1017.1
20260505163046 54 36 0.0 1.7 0.00 0.00 0.00 88 1017.1
20260505161544 54 36 0.0 1.7 0.00 0.00 0.00 91 1017.2
20260505153045 52 125 0.0 0.0 0.00 0.01 0.00 95 1017.1
20260505151637 52 125 0.0 0.0 0.00 0.01 0.00 96 1017.0